This is the latest recevied weather packets stored in our database for station/object SV9TNF-57. If no packets are shown the sender has not sent any weather packets the latest 10 day(s).
| Time | Temp. | Humidity | Pressure | Rain* | Wind** | Luminosity | Snow |
|---|---|---|---|---|---|---|---|
| 1788230884 | 25° C | 50% | 994 hPa | 0 mm | 3.58 m/s, 254° | - | - |
| 1788230584 | 25.56° C | 49% | 994 hPa | 0 mm | 2.24 m/s, 326° | - | - |
| 1788230284 | 25.56° C | 49% | 993.8 hPa | 0 mm | 3.58 m/s, 320° | - | - |
| 1788229984 | 25.56° C | 48% | 993.8 hPa | 0 mm | 2.24 m/s, 292° | - | - |
| 1788229684 | 25.56° C | 49% | 994 hPa | 0 mm | 0.45 m/s, 280° | - | - |
| 1788229384 | 25.56° C | 49% | 993.8 hPa | 0 mm | 0.45 m/s, 305° | - | - |
| 1788229084 | 25.56° C | 50% | 993.8 hPa | 0 mm | 0 m/s | - | - |
| 1788228784 | 25.56° C | 49% | 993.8 hPa | 0 mm | 1.79 m/s, 314° | - | - |
| 1788228484 | 25.56° C | 48% | 993.9 hPa | 0 mm | 3.13 m/s, 281° | - | - |
| 1788228183 | 25.56° C | 49% | 994 hPa | 0 mm | 0.45 m/s, 250° | - | - |
| 1788227883 | 25.56° C | 50% | 993.9 hPa | 0 mm | 1.79 m/s, 319° | - | - |
| 1788227583 | 25.56° C | 49% | 993.8 hPa | 0 mm | 2.68 m/s, 315° | - | - |
| 1788227283 | 25.56° C | 49% | 994 hPa | 0 mm | 0.89 m/s, 301° | - | - |
| 1788226983 | 25° C | 50% | 994 hPa | 0 mm | 3.58 m/s, 281° | - | - |
| 1788226683 | 25° C | 51% | 993.9 hPa | 0 mm | 0.89 m/s, 312° | - | - |
| 1788226383 | 25.56° C | 50% | 993.9 hPa | 0 mm | 0.45 m/s, 253° | - | - |
| 1788226083 | 25° C | 50% | 993.9 hPa | 0 mm | 0 m/s | - | - |
| 1788225783 | 25.56° C | 51% | 994 hPa | 0 mm | 2.68 m/s, 292° | - | - |
| 1788225482 | 25° C | 51% | 993.9 hPa | 0 mm | 0.45 m/s, 302° | - | - |
| 1788225183 | 25° C | 51% | 993.9 hPa | 0 mm | 0.45 m/s, 281° | - | - |
| 1788224882 | 25° C | 52% | 993.9 hPa | 0 mm | 0.89 m/s, 340° | - | - |
| 1788224582 | 25.56° C | 52% | 993.9 hPa | 0 mm | 0.89 m/s, 22° | - | - |
| 1788224282 | 25° C | 52% | 993.8 hPa | 0 mm | 4.02 m/s, 305° | - | - |
| 1788223982 | 25° C | 53% | 994.1 hPa | 0 mm | 1.34 m/s, 315° | - | - |
| 1788223682 | 25.56° C | 52% | 994.2 hPa | 0 mm | 0.89 m/s, 315° | - | - |
* Rain latest hour (hover to see other rain measurements)
** Current wind speed in m/s (hover to see current wind gust speed)